Back to catalog

COSMOS 839 DEB

AliveUNKNOWN
NORAD 10439·DEBRIS·🇷🇺 Russia

Launched Jul 8, 1976 from Plesetsk Cosmodrome

Loading…

Next Passes (next 24 hours)

TLE

FreshSource: Space-Track

Epoch: Sep 14, 2026, 10:12 UTC

1 10439U 76067Q   26257.42507128 -.00000047  00000-0  30949-4 0  9995
2 10439  65.7857 225.7358 0666706 189.9134 259.4618 12.24958222243882

Track COSMOS 839 DEB in real time with AllMySat

Download on the App Store